Regional Weather Roundup
Issued by NWS

Home | Current Version | Previous Version | Text Only | Print | Product List | Glossary On
Versions: 1 2 3 4 5 6 7 8 9 10 11 12 13 14 15 16 17 18 19 20 21 22 23 24 25 26 27 28 29 30 31 32 33 34 35 36 37 38 39 40 41 42 43 44 45 46 47 48 49 50
764
ASUS43 KOAX 232010
RWRNE

WEATHER ROUNDUP FOR NEBRASKA
NATIONAL WEATHER SERVICE OMAHA NE
300 PM CDT WED AUG 23 2017

NOTES: SATELLITE DATA IS BEING USED TO AUGMENT CLOUD COVER ABOVE
       12000 FEET.
       "FAIR" INDICATES FEW OR NO CLOUDS BELOW 12,000 FEET WITH NO
       SIGNIFICANT WEATHER AND/OR OBSTRUCTIONS TO VISIBILITY.


NEZ001>004-019>022-054>056-232100-
NEBRASKA PANHANDLE

CITY           SKY/WX    TMP DP  RH WIND       PRES   REMARKS
SCOTTSBLUFF    SUNNY     87  61  41 E9        30.05F
ALLIANCE       SUNNY     84  57  39 S12       30.04F
CHADRON        SUNNY     91  52  26 VRB6      29.99F
GORDON         FAIR      89  56  32 S5        30.01F
KIMBALL        SUNNY     88  51  28 E7        30.12F
SIDNEY         SUNNY     88  55  32 VRB6      30.09F
$$

NEZ057>060-069>072-079>082-232100-
SOUTHWEST NEBRASKA

CITY           SKY/WX    TMP DP  RH WIND       PRES   REMARKS
NORTH PLATTE   SUNNY     82  57  42 S17G25    30.06F
IMPERIAL       SUNNY     85  58  39 S17G24    30.08F
LEXINGTON      SUNNY     81  51  35 S17       30.10F
MCCOOK         SUNNY     83  53  35 S15       30.09F
OGALLALA       SUNNY     82  62  49 S13       30.07F
$$

NEZ005>010-023>029-035>040-094-232100-
NORTH CENTRAL NEBRASKA

CITY           SKY/WX    TMP DP  RH WIND       PRES   REMARKS
VALENTINE      SUNNY     90  58  33 SW16G26   29.99F
AINSWORTH      SUNNY     83  60  45 S20       30.02F
BROKEN BOW     SUNNY     82  53  36 SW15G25   30.08F
O`NEILL        SUNNY     81  56  43 S14       30.04F
ORD            SUNNY     79  54  41 S16G22    30.07F
THEDFORD       SUNNY     84  58  41 S18G26    30.05F
$$

NEZ041-046>049-061>064-073>077-083>087-232100-
SOUTH CENTRAL NEBRASKA

CITY           SKY/WX    TMP DP  RH WIND       PRES   REMARKS
GRAND ISLAND   SUNNY     79  58  48 S12G18    30.11F
AURORA         SUNNY     77  56  47 S10       30.11F
HASTINGS       SUNNY     78  53  41 S9        30.12F
HEBRON         SUNNY     81  53  37 SW6       30.11F
HOLDREGE       SUNNY     78  49  36 S13       30.11F
KEARNEY        SUNNY     78  56  46 S16       30.11F
YORK           SUNNY     75  59  57 SW7       30.11F
$$

NEZ011>018-030>034-042>045-232100-
NORTHEAST NEBRASKA

CITY           SKY/WX    TMP DP  RH WIND       PRES   REMARKS
NORFOLK        MOSUNNY   78  56  46 S13       30.07F
ALBION         SUNNY     78  61  55 S14       30.09F
BLAIR          SUNNY     77  56  48 SW3       30.11F
COLUMBUS       SUNNY     77  59  53 S12       30.11F
FREMONT        SUNNY     77  56  46 S7        30.12F
TEKAMAH        SUNNY     78  57  48 VRB7      30.10F
WAYNE          SUNNY     76  58  53 S12       30.08F
$$

NEZ050>053-065>068-078-088>093-232100-
SOUTHEAST NEBRASKA

CITY           SKY/WX    TMP DP  RH WIND       PRES   REMARKS
LINCOLN        SUNNY     79  56  45 S9        30.12F
OMAHA EPPLEY   SUNNY     79  53  40 CALM      30.10F
BEATRICE       SUNNY     80  55  41 S3        30.11F
FALLS CITY     SUNNY     79  54  41 VRB5      30.11F
NEBRASKA CITY  SUNNY     77  57  49 S5        30.12F
PLATTSMOUTH    SUNNY     78  53  43 S5        30.12F
$$

NEZ044-045-051>053-067-232100-
OMAHA AREA

CITY           SKY/WX    TMP DP  RH WIND       PRES   REMARKS
OMAHA EPPLEY   SUNNY     79  53  40 CALM      30.10F
BLAIR          SUNNY     77  56  48 SW3       30.11F
FREMONT        SUNNY     77  56  46 S7        30.12F
MILLARD        SUNNY     79  56  44 SE7       30.11F
OFFUTT AFB     SUNNY     78  55  44 S8        30.11F
PLATTSMOUTH    SUNNY     78  53  43 S5        30.12F
WAHOO          FAIR      78  57  48 S6        30.11F
$$




USA.gov is the U.S. government's official web portal to all federal, state and local government web resources and services.